Today

Time Wind Dr Wind Spd
mph
Wind Gust
mph
Hum In
%
Humid
%
TempI
F
Temp
F
Raw Bar
in
Tot Rain
in
UV Solar
W/sqm
DailyRain
in
HourRain
in
24HrRain
in
RainRate
in
08/14/18 12:01:34 AM 263 0.0 0.0 40 47 86.9 70.4 29.932 2.85 0.0 0 0.00 0.00 0.00 0.00
08/14/18 12:02:27 AM 263 0.0 0.0 40 47 86.9 70.3 29.931 2.85 0.0 0 0.00 0.00 0.00 0.00
08/14/18 12:03:18 AM 263 0.0 0.0 40 47 86.9 70.3 29.931 2.85 0.0 0 0.00 0.00 0.00 0.00
08/14/18 12:04:31 AM 263 0.0 0.0 40 47 86.9 70.3 29.933 2.85 0.0 0 0.00 0.00 0.00 0.00
08/14/18 12:05:23 AM 263 0.0 0.0 40 47 86.9 70.2 29.934 2.85 0.0 0 0.00 0.00 0.00 0.00
08/14/18 12:06:32 AM 263 0.0 0.0 40 47 87.0 70.2 29.930 2.85 0.0 0 0.00 0.00 0.00 0.00
08/14/18 12:07:24 AM 263 0.0 0.0 40 47 87.0 70.2 29.933 2.85 0.0 0 0.00 0.00 0.00 0.00
08/14/18 12:08:16 AM 263 0.0 0.0 40 47 87.0 70.2 29.932 2.85 0.0 0 0.00 0.00 0.00 0.00
08/14/18 12:09:28 AM 263 0.0 0.0 40 46 87.0 70.1 29.932 2.85 0.0 0 0.00 0.00 0.00 0.00
08/14/18 12:10:21 AM 263 0.0 0.0 40 46 87.0 70.2 29.931 2.85 0.0 0 0.00 0.00 0.00 0.00
08/14/18 12:11:32 AM 263 0.0 0.0 40 46 87.0 70.2 29.931 2.85 0.0 0 0.00 0.00 0.00 0.00
08/14/18 12:12:24 AM 263 0.0 0.0 40 46 87.0 70.3 29.929 2.85 0.0 0 0.00 0.00 0.00 0.00
08/14/18 12:13:35 AM 263 0.0 0.0 40 46 87.0 70.4 29.931 2.85 0.0 0 0.00 0.00 0.00 0.00
08/14/18 12:14:28 AM 263 0.0 0.0 40 46 87.0 70.4 29.932 2.85 0.0 0 0.00 0.00 0.00 0.00
08/14/18 12:15:20 AM 263 0.0 0.0 40 46 87.0 70.4 29.933 2.85 0.0 0 0.00 0.00 0.00 0.00
08/14/18 12:16:34 AM 263 0.0 0.0 40 46 87.0 70.5 29.932 2.85 0.0 0 0.00 0.00 0.00 0.00
08/14/18 12:17:20 AM 263 0.0 0.0 40 46 87.0 70.5 29.934 2.85 0.0 0 0.00 0.00 0.00 0.00
08/14/18 12:18:34 AM 263 0.0 0.0 40 47 87.0 70.4 29.932 2.85 0.0 0 0.00 0.00 0.00 0.00
08/14/18 12:19:27 AM 263 0.0 0.0 40 46 87.0 70.3 29.933 2.85 0.0 0 0.00 0.00 0.00 0.00
08/14/18 12:20:19 AM 263 0.0 0.0 40 46 87.0 70.3 29.930 2.85 0.0 0 0.00 0.00 0.00 0.00
08/14/18 12:21:30 AM 263 0.0 0.0 40 47 87.0 70.2 29.932 2.85 0.0 0 0.00 0.00 0.00 0.00
08/14/18 12:22:20 AM 263 0.0 0.0 40 47 87.1 70.1 29.933 2.85 0.0 0 0.00 0.00 0.00 0.00
08/14/18 12:23:33 AM 263 0.0 0.0 40 47 87.0 70.0 29.932 2.85 0.0 0 0.00 0.00 0.00 0.00
08/14/18 12:24:26 AM 263 0.0 0.0 40 48 87.0 69.9 29.934 2.85 0.0 0 0.00 0.00 0.00 0.00
08/14/18 12:25:18 AM 263 0.0 0.0 40 48 87.1 69.9 29.931 2.85 0.0 0 0.00 0.00 0.00 0.00
08/14/18 12:26:29 AM 263 0.0 0.0 40 47 87.1 69.7 29.932 2.85 0.0 0 0.00 0.00 0.00 0.00
08/14/18 12:27:22 AM 263 0.0 0.0 40 49 87.1 69.7 29.930 2.85 0.0 0 0.00 0.00 0.00 0.00
08/14/18 12:28:29 AM 263 0.0 0.0 40 48 87.1 69.6 29.933 2.85 0.0 0 0.00 0.00 0.00 0.00
08/14/18 12:29:22 AM 263 0.0 0.0 40 48 87.1 69.7 29.931 2.85 0.0 0 0.00 0.00 0.00 0.00
08/14/18 12:30:36 AM 263 0.0 0.0 40 48 87.1 69.7 29.933 2.85 0.0 0 0.00 0.00 0.00 0.00
08/14/18 12:31:28 AM 263 0.0 0.0 40 48 87.1 69.7 29.931 2.85 0.0 0 0.00 0.00 0.00 0.00
08/14/18 12:32:18 AM 263 0.0 0.0 40 48 87.1 69.7 29.933 2.85 0.0 0 0.00 0.00 0.00 0.00
08/14/18 12:33:29 AM 263 0.0 0.0 40 48 87.1 69.6 29.934 2.85 0.0 0 0.00 0.00 0.00 0.00
08/14/18 12:34:18 AM 263 0.0 0.0 40 49 87.2 69.6 29.930 2.85 0.0 0 0.00 0.00 0.00 0.00
08/14/18 12:35:32 AM 263 0.0 0.0 40 48 87.1 69.6 29.931 2.85 0.0 0 0.00 0.00 0.00 0.00
08/14/18 12:36:25 AM 263 0.0 0.0 40 50 87.1 69.5 29.931 2.85 0.0 0 0.00 0.00 0.00 0.00
08/14/18 12:37:17 AM 263 0.0 0.0 40 49 87.2 69.3 29.933 2.85 0.0 0 0.00 0.00 0.00 0.00
08/14/18 12:38:25 AM 263 0.0 0.0 40 49 87.2 69.2 29.933 2.85 0.0 0 0.00 0.00 0.00 0.00
08/14/18 12:39:18 AM 263 0.0 0.0 40 49 87.2 69.1 29.930 2.85 0.0 0 0.00 0.00 0.00 0.00
08/14/18 12:40:32 AM 263 0.0 0.0 40 49 87.2 68.9 29.931 2.85 0.0 0 0.00 0.00 0.00 0.00
08/14/18 12:41:24 AM 263 0.0 0.0 40 49 87.1 68.9 29.932 2.85 0.0 0 0.00 0.00 0.00 0.00
08/14/18 12:42:35 AM 263 0.0 0.0 40 52 87.1 68.9 29.929 2.85 0.0 0 0.00 0.00 0.00 0.00
08/14/18 12:43:28 AM 263 0.0 0.0 40 50 87.1 68.9 29.931 2.85 0.0 0 0.00 0.00 0.00 0.00
08/14/18 12:44:17 AM 263 0.0 0.0 40 49 87.1 69.0 29.933 2.85 0.0 0 0.00 0.00 0.00 0.00
08/14/18 12:45:28 AM 263 0.0 0.0 40 51 87.1 69.0 29.930 2.85 0.0 0 0.00 0.00 0.00 0.00
08/14/18 12:46:20 AM 263 0.0 0.0 40 50 87.2 69.0 29.931 2.85 0.0 0 0.00 0.00 0.00 0.00
08/14/18 12:47:34 AM 263 0.0 0.0 40 50 87.2 69.0 29.931 2.85 0.0 0 0.00 0.00 0.00 0.00
08/14/18 12:48:24 AM 263 0.0 0.0 40 50 87.2 69.0 29.929 2.85 0.0 0 0.00 0.00 0.00 0.00
08/14/18 12:49:35 AM 263 0.0 0.0 40 51 87.2 69.0 29.931 2.85 0.0 0 0.00 0.00 0.00 0.00
08/14/18 12:50:24 AM 263 0.0 0.0 40 51 87.2 68.9 29.929 2.85 0.0 0 0.00 0.00 0.00 0.00
08/14/18 12:51:23 AM 263 0.0 0.0 40 50 87.2 68.9 29.929 2.85 0.0 0 0.00 0.00 0.00 0.00
08/14/18 12:52:34 AM 263 0.0 0.0 40 50 87.2 68.9 29.928 2.85 0.0 0 0.00 0.00 0.00 0.00
08/14/18 12:53:26 AM 263 0.0 0.0 40 50 87.2 68.9 29.929 2.85 0.0 0 0.00 0.00 0.00 0.00
08/14/18 12:54:19 AM 263 0.0 0.0 40 50 87.2 68.9 29.928 2.85 0.0 0 0.00 0.00 0.00 0.00
08/14/18 12:55:30 AM 263 0.0 0.0 40 50 87.2 68.9 29.928 2.85 0.0 0 0.00 0.00 0.00 0.00
08/14/18 12:56:19 AM 263 0.0 0.0 40 50 87.2 69.0 29.929 2.85 0.0 0 0.00 0.00 0.00 0.00
08/14/18 12:57:33 AM 263 0.0 0.0 40 50 87.2 69.0 29.929 2.85 0.0 0 0.00 0.00 0.00 0.00
08/14/18 12:58:26 AM 263 0.0 0.0 40 50 87.2 69.0 29.926 2.85 0.0 0 0.00 0.00 0.00 0.00
08/14/18 12:59:19 AM 263 0.0 0.0 40 50 87.2 69.0 29.931 2.85 0.0 0 0.00 0.00 0.00 0.00
08/14/18 1:00:26 AM 263 0.0 0.0 40 50 87.2 69.0 29.929 2.85 0.0 0 0.00 0.00 0.00 0.00
08/14/18 1:01:19 AM 263 0.0 0.0 40 51 87.2 69.0 29.927 2.85 0.0 0 0.00 0.00 0.00 0.00
08/14/18 1:02:33 AM 263 0.0 0.0 40 50 87.3 69.0 29.928 2.85 0.0 0 0.00 0.00 0.00 0.00
08/14/18 1:03:25 AM 263 0.0 0.0 40 50 87.2 68.9 29.930 2.85 0.0 0 0.00 0.00 0.00 0.00
08/14/18 1:04:36 AM 263 0.0 0.0 40 50 87.3 68.9 29.927 2.85 0.0 0 0.00 0.00 0.00 0.00
08/14/18 1:05:26 AM 263 0.0 0.0 40 50 87.3 68.8 29.928 2.85 0.0 0 0.00 0.00 0.00 0.00
08/14/18 1:06:19 AM 263 0.0 0.0 40 50 87.4 68.8 29.928 2.85 0.0 0 0.00 0.00 0.00 0.00
08/14/18 1:07:29 AM 263 0.0 0.0 40 50 87.3 68.7 29.927 2.85 0.0 0 0.00 0.00 0.00 0.00
08/14/18 1:08:19 AM 263 0.0 0.0 40 50 87.3 68.7 29.929 2.85 0.0 0 0.00 0.00 0.00 0.00
08/14/18 1:09:33 AM 263 0.0 0.0 40 50 87.3 68.7 29.929 2.85 0.0 0 0.00 0.00 0.00 0.00
08/14/18 1:10:28 AM 263 0.0 0.0 40 50 87.3 68.8 29.928 2.85 0.0 0 0.00 0.00 0.00 0.00
08/14/18 1:11:36 AM 263 0.0 0.0 40 50 87.3 68.8 29.930 2.85 0.0 0 0.00 0.00 0.00 0.00
08/14/18 1:12:29 AM 263 0.0 0.0 40 50 87.3 68.7 29.929 2.85 0.0 0 0.00 0.00 0.00 0.00
08/14/18 1:13:22 AM 263 0.0 0.0 40 50 87.3 68.8 29.928 2.85 0.0 0 0.00 0.00 0.00 0.00
08/14/18 1:14:33 AM 263 0.0 0.0 40 51 87.3 68.8 29.928 2.85 0.0 0 0.00 0.00 0.00 0.00
08/14/18 1:15:26 AM 263 0.0 0.0 40 50 87.3 68.7 29.927 2.85 0.0 0 0.00 0.00 0.00 0.00
08/14/18 1:16:36 AM 263 0.0 0.0 40 50 87.3 68.7 29.929 2.85 0.0 0 0.00 0.00 0.00 0.00
08/14/18 1:17:29 AM 263 0.0 0.0 40 50 87.3 68.7 29.926 2.85 0.0 0 0.00 0.00 0.00 0.00
08/14/18 1:18:19 AM 263 0.0 0.0 40 51 87.4 68.6 29.927 2.85 0.0 0 0.00 0.00 0.00 0.00
08/14/18 1:19:33 AM 263 0.0 0.0 40 51 87.3 68.6 29.928 2.85 0.0 0 0.00 0.00 0.00 0.00
08/14/18 1:20:25 AM 263 0.0 0.0 40 51 87.4 68.5 29.925 2.85 0.0 0 0.00 0.00 0.00 0.00
08/14/18 1:21:18 AM 263 0.0 0.0 40 51 87.3 68.5 29.927 2.85 0.0 0 0.00 0.00 0.00 0.00
08/14/18 1:22:26 AM 263 0.0 0.0 40 51 87.4 68.5 29.926 2.85 0.0 0 0.00 0.00 0.00 0.00
08/14/18 1:23:19 AM 263 0.0 0.0 40 51 87.4 68.6 29.925 2.85 0.0 0 0.00 0.00 0.00 0.00
08/14/18 1:24:32 AM 263 0.0 0.0 40 51 87.4 68.7 29.925 2.85 0.0 0 0.00 0.00 0.00 0.00
08/14/18 1:25:25 AM 263 0.0 0.0 40 51 87.3 68.7 29.926 2.85 0.0 0 0.00 0.00 0.00 0.00
08/14/18 1:26:18 AM 263 0.0 0.0 40 51 87.4 68.7 29.926 2.85 0.0 0 0.00 0.00 0.00 0.00
08/14/18 1:27:26 AM 263 0.0 0.0 40 51 87.3 68.7 29.922 2.85 0.0 0 0.00 0.00 0.00 0.00
08/14/18 1:28:19 AM 263 0.0 0.0 40 51 87.4 68.7 29.924 2.85 0.0 0 0.00 0.00 0.00 0.00
08/14/18 1:29:29 AM 263 0.0 0.0 40 51 87.4 68.7 29.924 2.85 0.0 0 0.00 0.00 0.00 0.00
08/14/18 1:30:22 AM 263 0.0 0.0 40 52 87.4 68.7 29.926 2.85 0.0 0 0.00 0.00 0.00 0.00
08/14/18 1:31:33 AM 263 0.0 0.0 40 52 87.4 68.8 29.923 2.85 0.0 0 0.00 0.00 0.00 0.00
08/14/18 1:32:23 AM 263 0.0 0.0 40 52 87.4 68.9 29.923 2.85 0.0 0 0.00 0.00 0.00 0.00
08/14/18 1:33:18 AM 263 0.0 0.0 40 52 87.4 68.9 29.922 2.85 0.0 0 0.00 0.00 0.00 0.00
08/14/18 1:34:29 AM 263 0.0 0.0 40 52 87.4 68.8 29.924 2.85 0.0 0 0.00 0.00 0.00 0.00
08/14/18 1:35:22 AM 263 0.0 0.0 40 52 87.4 68.8 29.923 2.85 0.0 0 0.00 0.00 0.00 0.00
08/14/18 1:36:33 AM 263 0.0 0.0 40 52 87.4 68.7 29.923 2.85 0.0 0 0.00 0.00 0.00 0.00
08/14/18 1:37:25 AM 263 0.0 0.0 40 52 87.4 68.6 29.924 2.85 0.0 0 0.00 0.00 0.00 0.00
08/14/18 1:38:33 AM 263 0.0 0.0 40 52 87.4 68.5 29.924 2.85 0.0 0 0.00 0.00 0.00 0.00
08/14/18 1:39:26 AM 263 0.0 0.0 40 52 87.4 68.5 29.922 2.85 0.0 0 0.00 0.00 0.00 0.00
08/14/18 1:40:19 AM 263 0.0 0.0 40 52 87.4 68.4 29.925 2.85 0.0 0 0.00 0.00 0.00 0.00
08/14/18 1:41:33 AM 263 0.0 0.0 40 52 87.5 68.3 29.926 2.85 0.0 0 0.00 0.00 0.00 0.00
08/14/18 1:42:22 AM 263 0.0 0.0 40 52 87.4 68.3 29.924 2.85 0.0 0 0.00 0.00 0.00 0.00
08/14/18 1:43:33 AM 263 0.0 0.0 40 52 87.4 68.3 29.926 2.85 0.0 0 0.00 0.00 0.00 0.00
08/14/18 1:44:23 AM 263 0.0 0.0 40 52 87.5 68.3 29.925 2.85 0.0 0 0.00 0.00 0.00 0.00
08/14/18 1:45:16 AM 263 0.0 0.0 40 52 87.4 68.4 29.926 2.85 0.0 0 0.00 0.00 0.00 0.00
08/14/18 1:46:30 AM 263 0.0 0.0 40 52 87.4 68.4 29.925 2.85 0.0 0 0.00 0.00 0.00 0.00
08/14/18 1:47:22 AM 263 0.0 0.0 40 52 87.5 68.5 29.926 2.85 0.0 0 0.00 0.00 0.00 0.00
08/14/18 1:48:30 AM 263 0.0 0.0 40 52 87.5 68.5 29.926 2.85 0.0 0 0.00 0.00 0.00 0.00
08/14/18 1:49:23 AM 263 0.0 0.0 40 52 87.4 68.4 29.924 2.85 0.0 0 0.00 0.00 0.00 0.00
08/14/18 1:50:37 AM 263 0.0 0.0 40 52 87.5 68.3 29.924 2.85 0.0 0 0.00 0.00 0.00 0.00
08/14/18 1:51:26 AM 263 0.0 0.0 40 52 87.5 68.2 29.924 2.85 0.0 0 0.00 0.00 0.00 0.00
08/14/18 1:52:19 AM 263 0.0 0.0 40 52 87.5 68.2 29.926 2.85 0.0 0 0.00 0.00 0.00 0.00
08/14/18 1:53:33 AM 263 0.0 0.0 40 53 87.5 68.2 29.923 2.85 0.0 0 0.00 0.00 0.00 0.00
08/14/18 1:54:20 AM 263 0.0 0.0 40 53 87.5 68.1 29.923 2.85 0.0 0 0.00 0.00 0.00 0.00
08/14/18 1:55:31 AM 263 0.0 0.0 40 52 87.5 68.1 29.923 2.85 0.0 0 0.00 0.00 0.00 0.00
08/14/18 1:56:26 AM 263 0.0 0.0 40 53 87.6 68.1 29.922 2.85 0.0 0 0.00 0.00 0.00 0.00
08/14/18 1:57:19 AM 263 0.0 0.0 40 53 87.5 68.0 29.921 2.85 0.0 0 0.00 0.00 0.00 0.00
08/14/18 1:58:33 AM 263 0.0 0.0 40 53 87.5 68.0 29.923 2.85 0.0 0 0.00 0.00 0.00 0.00
08/14/18 1:59:20 AM 263 0.0 0.0 40 53 87.5 68.0 29.922 2.85 0.0 0 0.00 0.00 0.00 0.00
08/14/18 2:00:34 AM 263 0.0 0.0 40 53 87.5 67.9 29.922 2.85 0.0 0 0.00 0.00 0.00 0.00
08/14/18 2:01:30 AM 263 0.0 0.0 40 53 87.6 67.9 29.924 2.85 0.0 0 0.00 0.00 0.00 0.00
08/14/18 2:02:22 AM 263 0.0 0.0 40 54 87.5 67.9 29.920 2.85 0.0 0 0.00 0.00 0.00 0.00
08/14/18 2:03:33 AM 263 0.0 0.0 40 54 87.5 67.8 29.921 2.85 0.0 0 0.00 0.00 0.00 0.00
08/14/18 2:04:26 AM 263 0.0 0.0 40 53 87.6 67.9 29.923 2.85 0.0 0 0.00 0.00 0.00 0.00
08/14/18 2:05:34 AM 263 0.0 0.0 40 53 87.6 67.9 29.923 2.85 0.0 0 0.00 0.00 0.00 0.00
08/14/18 2:06:27 AM 263 0.0 0.0 40 54 87.5 67.9 29.921 2.85 0.0 0 0.00 0.00 0.00 0.00
08/14/18 2:07:19 AM 263 0.0 0.0 40 54 87.6 67.9 29.922 2.85 0.0 0 0.00 0.00 0.00 0.00
08/14/18 2:08:33 AM 263 0.0 0.0 40 54 87.5 67.9 29.922 2.85 0.0 0 0.00 0.00 0.00 0.00
08/14/18 2:09:26 AM 263 0.0 0.0 40 54 87.5 67.9 29.921 2.85 0.0 0 0.00 0.00 0.00 0.00
08/14/18 2:10:34 AM 263 0.0 0.0 40 54 87.6 67.9 29.920 2.85 0.0 0 0.00 0.00 0.00 0.00
08/14/18 2:11:27 AM 263 0.0 0.0 40 54 87.6 67.9 29.920 2.85 0.0 0 0.00 0.00 0.00 0.00
08/14/18 2:12:17 AM 263 0.0 0.0 40 54 87.6 67.9 29.918 2.85 0.0 0 0.00 0.00 0.00 0.00
08/14/18 2:13:31 AM 263 0.0 0.0 40 55 87.6 67.8 29.919 2.85 0.0 0 0.00 0.00 0.00 0.00
08/14/18 2:14:23 AM 263 0.0 0.0 40 55 87.6 67.7 29.920 2.85 0.0 0 0.00 0.00 0.00 0.00
08/14/18 2:15:31 AM 263 0.0 0.0 40 56 87.6 67.6 29.919 2.85 0.0 0 0.00 0.00 0.00 0.00
08/14/18 2:16:24 AM 263 0.0 0.0 40 56 87.6 67.5 29.920 2.85 0.0 0 0.00 0.00 0.00 0.00
08/14/18 2:17:17 AM 263 0.0 0.0 40 56 87.6 67.4 29.920 2.85 0.0 0 0.00 0.00 0.00 0.00
08/14/18 2:18:28 AM 263 0.0 0.0 40 56 87.6 67.3 29.920 2.85 0.0 0 0.00 0.00 0.00 0.00
08/14/18 2:19:21 AM 263 0.0 0.0 40 56 87.6 67.3 29.920 2.85 0.0 0 0.00 0.00 0.00 0.00
08/14/18 2:20:35 AM 263 0.0 0.0 40 56 87.6 67.2 29.919 2.85 0.0 0 0.00 0.00 0.00 0.00
08/14/18 2:21:24 AM 263 0.0 0.0 40 56 87.6 67.2 29.922 2.85 0.0 0 0.00 0.00 0.00 0.00
08/14/18 2:22:35 AM 263 0.0 0.0 40 56 87.7 67.2 29.919 2.85 0.0 0 0.00 0.00 0.00 0.00
08/14/18 2:23:28 AM 263 0.0 0.0 40 56 87.6 67.2 29.918 2.85 0.0 0 0.00 0.00 0.00 0.00
08/14/18 2:24:21 AM 263 0.0 0.0 40 56 87.6 67.2 29.920 2.85 0.0 0 0.00 0.00 0.00 0.00
08/14/18 2:25:32 AM 263 0.0 0.0 40 55 87.6 67.3 29.920 2.85 0.0 0 0.00 0.00 0.00 0.00
08/14/18 2:26:22 AM 263 0.0 0.0 40 55 87.7 67.2 29.921 2.85 0.0 0 0.00 0.00 0.00 0.00
08/14/18 2:27:33 AM 263 0.0 0.0 40 55 87.6 67.2 29.918 2.85 0.0 0 0.00 0.00 0.00 0.00
08/14/18 2:28:25 AM 263 0.0 0.0 40 55 87.6 67.2 29.918 2.85 0.0 0 0.00 0.00 0.00 0.00
08/14/18 2:29:18 AM 263 0.0 0.0 40 55 87.6 67.1 29.918 2.85 0.0 0 0.00 0.00 0.00 0.00
08/14/18 2:30:32 AM 263 0.0 0.0 40 56 87.6 67.0 29.916 2.85 0.0 0 0.00 0.00 0.00 0.00
08/14/18 2:31:22 AM 263 0.0 0.0 40 55 87.6 67.0 29.919 2.85 0.0 0 0.00 0.00 0.00 0.00
08/14/18 2:32:33 AM 263 0.0 0.0 40 55 87.7 66.9 29.917 2.85 0.0 0 0.00 0.00 0.00 0.00
08/14/18 2:33:23 AM 263 0.0 0.0 40 55 87.6 67.0 29.918 2.85 0.0 0 0.00 0.00 0.00 0.00
08/14/18 2:34:37 AM 263 0.0 0.0 40 55 87.6 67.0 29.916 2.85 0.0 0 0.00 0.00 0.00 0.00
08/14/18 2:35:26 AM 263 0.0 0.0 40 55 87.7 67.1 29.916 2.85 0.0 0 0.00 0.00 0.00 0.00
08/14/18 2:36:22 AM 263 0.0 0.0 40 55 87.6 67.1 29.916 2.85 0.0 0 0.00 0.00 0.00 0.00
08/14/18 2:37:30 AM 263 0.0 0.0 40 55 87.6 67.1 29.916 2.85 0.0 0 0.00 0.00 0.00 0.00
08/14/18 2:38:23 AM 263 0.0 0.0 40 55 87.6 67.1 29.913 2.85 0.0 0 0.00 0.00 0.00 0.00
08/14/18 2:39:34 AM 263 0.0 0.0 40 55 87.6 67.1 29.915 2.85 0.0 0 0.00 0.00 0.00 0.00
08/14/18 2:40:27 AM 263 0.0 0.0 40 55 87.7 67.1 29.914 2.85 0.0 0 0.00 0.00 0.00 0.00
08/14/18 2:41:20 AM 263 0.0 0.0 40 55 87.7 67.1 29.914 2.85 0.0 0 0.00 0.00 0.00 0.00
08/14/18 2:42:28 AM 263 0.0 0.0 40 55 87.7 67.1 29.915 2.85 0.0 0 0.00 0.00 0.00 0.00
08/14/18 2:43:20 AM 263 0.0 0.0 40 55 87.7 67.0 29.914 2.85 0.0 0 0.00 0.00 0.00 0.00
08/14/18 2:44:31 AM 263 0.0 0.0 40 55 87.7 67.0 29.915 2.85 0.0 0 0.00 0.00 0.00 0.00
08/14/18 2:45:24 AM 263 0.0 0.0 40 55 87.7 67.0 29.914 2.85 0.0 0 0.00 0.00 0.00 0.00
08/14/18 2:46:17 AM 263 0.0 0.0 40 55 87.6 67.0 29.915 2.85 0.0 0 0.00 0.00 0.00 0.00
08/14/18 2:47:31 AM 263 0.0 0.0 40 55 87.6 67.1 29.914 2.85 0.0 0 0.00 0.00 0.00 0.00
08/14/18 2:48:18 AM 263 0.0 0.0 40 55 87.7 67.1 29.916 2.85 0.0 0 0.00 0.00 0.00 0.00
08/14/18 2:49:32 AM 263 0.0 0.0 40 55 87.7 67.1 29.915 2.85 0.0 0 0.00 0.00 0.00 0.00
08/14/18 2:50:25 AM 263 0.0 0.0 40 55 87.7 67.1 29.917 2.85 0.0 0 0.00 0.00 0.00 0.00
08/14/18 2:51:17 AM 263 0.0 0.0 40 55 87.6 67.1 29.915 2.85 0.0 0 0.00 0.00 0.00 0.00
08/14/18 2:52:28 AM 263 0.0 0.0 40 55 87.7 67.1 29.916 2.85 0.0 0 0.00 0.00 0.00 0.00
08/14/18 2:53:18 AM 263 0.0 0.0 40 55 87.7 67.1 29.917 2.85 0.0 0 0.00 0.00 0.00 0.00
08/14/18 2:54:32 AM 263 0.0 0.0 40 55 87.7 67.1 29.915 2.85 0.0 0 0.00 0.00 0.00 0.00
08/14/18 2:55:22 AM 263 0.0 0.0 40 55 87.7 67.1 29.918 2.85 0.0 0 0.00 0.00 0.00 0.00
08/14/18 2:56:36 AM 263 0.0 0.0 40 55 87.7 67.1 29.915 2.85 0.0 0 0.00 0.00 0.00 0.00
08/14/18 2:57:26 AM 263 0.0 0.0 40 55 87.7 67.1 29.916 2.85 0.0 0 0.00 0.00 0.00 0.00
08/14/18 2:58:19 AM 263 0.0 0.0 40 55 87.7 67.1 29.917 2.85 0.0 0 0.00 0.00 0.00 0.00
08/14/18 2:59:30 AM 263 0.0 0.0 40 56 87.7 67.0 29.915 2.85 0.0 0 0.00 0.00 0.00 0.00
08/14/18 3:00:19 AM 263 0.0 0.0 40 57 87.7 67.0 29.915 2.85 0.0 0 0.00 0.00 0.00 0.00
08/14/18 3:01:33 AM 263 0.0 0.0 40 57 87.7 66.8 29.916 2.85 0.0 0 0.00 0.00 0.00 0.00
08/14/18 3:02:23 AM 263 0.0 0.0 40 57 87.7 66.7 29.914 2.85 0.0 0 0.00 0.00 0.00 0.00
08/14/18 3:03:16 AM 263 0.0 0.0 40 56 87.7 66.7 29.914 2.85 0.0 0 0.00 0.00 0.00 0.00
08/14/18 3:04:27 AM 263 0.0 0.0 40 56 87.7 66.6 29.916 2.85 0.0 0 0.00 0.00 0.00 0.00
08/14/18 3:05:17 AM 263 0.0 0.0 40 56 87.7 66.6 29.915 2.85 0.0 0 0.00 0.00 0.00 0.00
08/14/18 3:06:31 AM 263 0.0 0.0 40 56 87.7 66.7 29.915 2.85 0.0 0 0.00 0.00 0.00 0.00
08/14/18 3:07:24 AM 263 0.0 0.0 40 56 87.7 66.7 29.916 2.85 0.0 0 0.00 0.00 0.00 0.00
08/14/18 3:08:35 AM 263 0.0 0.0 40 57 87.7 66.7 29.914 2.85 0.0 0 0.00 0.00 0.00 0.00
08/14/18 3:09:24 AM 263 0.0 0.0 40 57 87.7 66.6 29.915 2.85 0.0 0 0.00 0.00 0.00 0.00
08/14/18 3:10:35 AM 263 0.0 0.0 40 57 87.7 66.6 29.916 2.85 0.0 0 0.00 0.00 0.00 0.00
08/14/18 3:11:28 AM 263 0.0 0.0 40 57 87.7 66.6 29.914 2.85 0.0 0 0.00 0.00 0.00 0.00
08/14/18 3:12:21 AM 263 0.0 0.0 40 57 87.7 66.6 29.913 2.85 0.0 0 0.00 0.00 0.00 0.00
08/14/18 3:13:32 AM 263 0.0 0.0 40 57 87.7 66.5 29.914 2.85 0.0 0 0.00 0.00 0.00 0.00
08/14/18 3:14:22 AM 263 0.0 0.0 40 57 87.7 66.5 29.913 2.85 0.0 0 0.00 0.00 0.00 0.00
08/14/18 3:15:33 AM 263 0.0 0.0 40 57 87.7 66.5 29.912 2.85 0.0 0 0.00 0.00 0.00 0.00
08/14/18 3:16:26 AM 263 0.0 0.0 40 57 87.7 66.5 29.913 2.85 0.0 0 0.00 0.00 0.00 0.00
08/14/18 3:17:19 AM 263 0.0 0.0 40 57 87.7 66.5 29.913 2.85 0.0 0 0.00 0.00 0.00 0.00
08/14/18 3:18:30 AM 263 0.0 0.0 40 57 87.7 66.5 29.912 2.85 0.0 0 0.00 0.00 0.00 0.00
08/14/18 3:19:23 AM 263 0.0 0.0 40 57 87.7 66.5 29.914 2.85 0.0 0 0.00 0.00 0.00 0.00
08/14/18 3:20:31 AM 263 0.0 0.0 40 57 87.7 66.4 29.911 2.85 0.0 0 0.00 0.00 0.00 0.00
08/14/18 3:21:23 AM 263 0.0 0.0 40 57 87.7 66.3 29.912 2.85 0.0 0 0.00 0.00 0.00 0.00
08/14/18 3:22:16 AM 263 0.0 0.0 40 57 87.7 66.3 29.914 2.85 0.0 0 0.00 0.00 0.00 0.00
08/14/18 3:23:30 AM 263 0.0 0.0 40 58 87.7 66.3 29.913 2.85 0.0 0 0.00 0.00 0.00 0.00
08/14/18 3:24:23 AM 263 0.0 0.0 40 58 87.7 66.3 29.912 2.85 0.0 0 0.00 0.00 0.00 0.00
08/14/18 3:25:31 AM 263 0.0 0.0 40 58 87.7 66.3 29.911 2.85 0.0 0 0.00 0.00 0.00 0.00
08/14/18 3:26:21 AM 263 0.0 0.0 40 58 87.7 66.3 29.913 2.85 0.0 0 0.00 0.00 0.00 0.00
08/14/18 3:27:32 AM 263 0.0 0.0 40 58 87.7 66.2 29.912 2.85 0.0 0 0.00 0.00 0.00 0.00
08/14/18 3:28:25 AM 263 0.0 0.0 40 58 87.7 66.2 29.912 2.85 0.0 0 0.00 0.00 0.00 0.00
08/14/18 3:29:18 AM 263 0.0 0.0 40 58 87.7 66.2 29.912 2.85 0.0 0 0.00 0.00 0.00 0.00
08/14/18 3:30:32 AM 263 0.0 0.0 40 58 87.7 66.2 29.913 2.85 0.0 0 0.00 0.00 0.00 0.00
08/14/18 3:31:19 AM 263 0.0 0.0 40 58 87.7 66.3 29.911 2.85 0.0 0 0.00 0.00 0.00 0.00
08/14/18 3:32:33 AM 263 0.0 1.0 40 58 87.7 66.3 29.911 2.85 0.0 0 0.00 0.00 0.00 0.00
08/14/18 3:33:26 AM 263 2.0 2.0 40 58 87.7 66.4 29.910 2.85 0.0 0 0.00 0.00 0.00 0.00
08/14/18 3:34:19 AM 263 2.0 2.0 40 59 87.7 66.4 29.910 2.85 0.0 0 0.00 0.00 0.00 0.00
08/14/18 3:35:33 AM 263 1.0 2.0 40 59 87.7 66.5 29.912 2.85 0.0 0 0.00 0.00 0.00 0.00
08/14/18 3:36:23 AM 263 2.0 2.0 40 59 87.7 66.5 29.909 2.85 0.0 0 0.00 0.00 0.00 0.00
08/14/18 3:37:34 AM 263 1.0 2.0 40 59 87.7 66.5 29.907 2.85 0.0 0 0.00 0.00 0.00 0.00
08/14/18 3:38:27 AM 263 1.0 2.0 40 59 87.8 66.5 29.910 2.85 0.0 0 0.00 0.00 0.00 0.00
08/14/18 3:39:20 AM 263 0.0 2.0 40 59 87.7 66.4 29.908 2.85 0.0 0 0.00 0.00 0.00 0.00
08/14/18 3:40:34 AM 263 0.0 2.0 40 59 87.7 66.3 29.907 2.85 0.0 0 0.00 0.00 0.00 0.00
08/14/18 3:41:27 AM 263 0.0 2.0 40 59 87.7 66.3 29.906 2.85 0.0 0 0.00 0.00 0.00 0.00
08/14/18 3:42:35 AM 263 0.0 2.0 40 59 87.7 66.3 29.908 2.85 0.0 0 0.00 0.00 0.00 0.00
08/14/18 3:43:28 AM 263 0.0 2.0 40 59 87.7 66.3 29.907 2.85 0.0 0 0.00 0.00 0.00 0.00
08/14/18 3:44:17 AM 263 0.0 2.0 40 59 87.7 66.3 29.906 2.85 0.0 0 0.00 0.00 0.00 0.00
08/14/18 3:45:32 AM 263 0.0 2.0 40 59 87.7 66.4 29.908 2.85 0.0 0 0.00 0.00 0.00 0.00
08/14/18 3:46:24 AM 263 0.0 2.0 40 59 87.7 66.4 29.907 2.85 0.0 0 0.00 0.00 0.00 0.00
08/14/18 3:47:35 AM 263 0.0 2.0 40 59 87.7 66.4 29.908 2.85 0.0 0 0.00 0.00 0.00 0.00
08/14/18 3:48:25 AM 263 0.0 2.0 40 59 87.7 66.5 29.907 2.85 0.0 0 0.00 0.00 0.00 0.00
08/14/18 3:49:18 AM 263 0.0 2.0 40 59 87.7 66.5 29.907 2.85 0.0 0 0.00 0.00 0.00 0.00
08/14/18 3:50:32 AM 263 0.0 2.0 40 59 87.7 66.5 29.905 2.85 0.0 0 0.00 0.00 0.00 0.00
08/14/18 3:51:22 AM 263 0.0 2.0 40 59 87.7 66.5 29.906 2.85 0.0 0 0.00 0.00 0.00 0.00
08/14/18 3:52:18 AM 263 0.0 2.0 40 59 87.7 66.5 29.905 2.85 0.0 0 0.00 0.00 0.00 0.00
08/14/18 3:53:26 AM 263 0.0 2.0 40 59 87.7 66.5 29.907 2.85 0.0 0 0.00 0.00 0.00 0.00
08/14/18 3:54:19 AM 263 0.0 2.0 40 59 87.7 66.4 29.905 2.85 0.0 0 0.00 0.00 0.00 0.00
08/14/18 3:55:30 AM 263 0.0 2.0 40 60 87.7 66.4 29.906 2.85 0.0 0 0.00 0.00 0.00 0.00
08/14/18 3:56:23 AM 263 0.0 2.0 40 60 87.7 66.4 29.907 2.85 0.0 0 0.00 0.00 0.00 0.00
08/14/18 3:57:34 AM 263 0.0 2.0 40 60 87.7 66.5 29.905 2.85 0.0 0 0.00 0.00 0.00 0.00
08/14/18 3:58:24 AM 263 0.0 2.0 40 60 87.7 66.5 29.908 2.85 0.0 0 0.00 0.00 0.00 0.00
08/14/18 3:59:17 AM 263 0.0 2.0 40 60 87.7 66.5 29.907 2.85 0.0 0 0.00 0.00 0.00 0.00
08/14/18 4:00:31 AM 263 0.0 2.0 40 60 87.7 66.5 29.904 2.85 0.0 0 0.00 0.00 0.00 0.00
08/14/18 4:01:21 AM 263 0.0 2.0 40 60 87.7 66.5 29.906 2.85 0.0 0 0.00 0.00 0.00 0.00
08/14/18 4:02:35 AM 263 0.0 2.0 40 59 87.7 66.5 29.906 2.85 0.0 0 0.00 0.00 0.00 0.00
08/14/18 4:03:22 AM 263 0.0 2.0 40 59 87.7 66.5 29.905 2.85 0.0 0 0.00 0.00 0.00 0.00
08/14/18 4:04:36 AM 263 1.0 2.0 40 60 87.7 66.5 29.905 2.85 0.0 0 0.00 0.00 0.00 0.00
08/14/18 4:05:29 AM 263 0.0 2.0 40 60 87.7 66.5 29.906 2.85 0.0 0 0.00 0.00 0.00 0.00
08/14/18 4:06:22 AM 263 1.0 2.0 40 59 87.7 66.5 29.904 2.85 0.0 0 0.00 0.00 0.00 0.00
08/14/18 4:07:33 AM 263 1.0 2.0 40 60 87.7 66.5 29.905 2.85 0.0 0 0.00 0.00 0.00 0.00
08/14/18 4:08:26 AM 263 1.0 2.0 40 60 87.7 66.5 29.904 2.85 0.0 0 0.00 0.00 0.00 0.00
08/14/18 4:09:34 AM 263 1.0 2.0 40 60 87.7 66.4 29.904 2.85 0.0 0 0.00 0.00 0.00 0.00
08/14/18 4:10:27 AM 263 1.0 2.0 40 60 87.7 66.4 29.905 2.85 0.0 0 0.00 0.00 0.00 0.00
08/14/18 4:11:20 AM 263 2.0 3.0 40 60 87.7 66.4 29.906 2.85 0.0 0 0.00 0.00 0.00 0.00
08/14/18 4:12:34 AM 263 2.0 3.0 40 60 87.7 66.3 29.901 2.85 0.0 0 0.00 0.00 0.00 0.00
08/14/18 4:13:27 AM 263 1.0 3.0 40 60 87.7 66.3 29.906 2.85 0.0 0 0.00 0.00 0.00 0.00
08/14/18 4:14:35 AM 263 0.0 3.0 40 60 87.8 66.3 29.904 2.85 0.0 0 0.00 0.00 0.00 0.00
08/14/18 4:15:28 AM 264 0.0 3.0 40 60 87.8 66.2 29.904 2.85 0.0 0 0.00 0.00 0.00 0.00
08/14/18 4:16:21 AM 264 0.0 3.0 40 61 87.7 66.2 29.905 2.85 0.0 0 0.00 0.00 0.00 0.00
08/14/18 4:17:32 AM 321 3.0 3.0 40 61 87.8 66.1 29.902 2.85 0.0 0 0.00 0.00 0.00 0.00
08/14/18 4:18:25 AM 323 3.0 4.0 40 61 87.8 66.2 29.905 2.85 0.0 0 0.00 0.00 0.00 0.00
08/14/18 4:19:30 AM 323 2.0 4.0 40 61 87.7 66.2 29.904 2.85 0.0 0 0.00 0.00 0.00 0.00
08/14/18 4:20:23 AM 323 1.0 4.0 40 61 87.8 66.2 29.904 2.85 0.0 0 0.00 0.00 0.00 0.00
08/14/18 4:21:16 AM 323 1.0 4.0 40 61 87.7 66.3 29.904 2.85 0.0 0 0.00 0.00 0.00 0.00
08/14/18 4:22:30 AM 323 2.0 4.0 40 61 87.7 66.3 29.905 2.85 0.0 0 0.00 0.00 0.00 0.00
08/14/18 4:23:23 AM 323 2.0 4.0 40 60 87.8 66.3 29.903 2.85 0.0 0 0.00 0.00 0.00 0.00
08/14/18 4:24:37 AM 323 1.0 4.0 40 60 87.8 66.3 29.906 2.85 0.0 0 0.00 0.00 0.00 0.00
08/14/18 4:25:24 AM 323 1.0 4.0 40 61 87.7 66.2 29.904 2.85 0.0 0 0.00 0.00 0.00 0.00
08/14/18 4:26:17 AM 323 1.0 4.0 40 61 87.8 66.2 29.902 2.85 0.0 0 0.00 0.00 0.00 0.00
08/14/18 4:27:28 AM 323 2.0 4.0 40 61 87.8 66.1 29.905 2.85 0.0 0 0.00 0.00 0.00 0.00
08/14/18 4:28:21 AM 323 2.0 4.0 40 61 87.7 66.1 29.905 2.85 0.0 0 0.00 0.00 0.00 0.00
08/14/18 4:29:35 AM 323 2.0 4.0 40 61 87.8 66.1 29.905 2.85 0.0 0 0.00 0.00 0.00 0.00
08/14/18 4:30:22 AM 323 3.0 4.0 40 61 87.7 66.1 29.903 2.85 0.0 0 0.00 0.00 0.00 0.00
08/14/18 4:31:34 AM 323 1.0 4.0 40 61 87.7 66.0 29.905 2.85 0.0 0 0.00 0.00 0.00 0.00
08/14/18 4:32:27 AM 323 2.0 4.0 40 61 87.8 66.0 29.903 2.85 0.0 0 0.00 0.00 0.00 0.00
08/14/18 4:33:20 AM 323 2.0 4.0 40 62 87.8 65.9 29.905 2.85 0.0 0 0.00 0.00 0.00 0.00
08/14/18 4:34:34 AM 323 1.0 4.0 40 62 87.7 65.9 29.905 2.85 0.0 0 0.00 0.00 0.00 0.00
08/14/18 4:35:27 AM 323 2.0 4.0 40 62 87.8 65.9 29.905 2.85 0.0 0 0.00 0.00 0.00 0.00
08/14/18 4:36:33 AM 323 2.0 4.0 40 62 87.8 65.9 29.905 2.85 0.0 0 0.00 0.00 0.00 0.00
08/14/18 4:37:26 AM 323 1.0 4.0 40 62 87.8 65.9 29.905 2.85 0.0 0 0.00 0.00 0.00 0.00
08/14/18 4:38:19 AM 323 0.0 4.0 40 62 87.8 65.9 29.905 2.85 0.0 0 0.00 0.00 0.00 0.00
08/14/18 4:39:30 AM 323 0.0 4.0 40 62 87.8 65.9 29.905 2.85 0.0 0 0.00 0.00 0.00 0.00
08/14/18 4:40:23 AM 323 1.0 4.0 40 62 87.8 65.8 29.905 2.85 0.0 0 0.00 0.00 0.00 0.00
08/14/18 4:41:31 AM 323 0.0 4.0 40 62 87.7 65.8 29.904 2.85 0.0 0 0.00 0.00 0.00 0.00
08/14/18 4:42:24 AM 323 0.0 4.0 40 62 87.8 65.8 29.908 2.85 0.0 0 0.00 0.00 0.00 0.00
08/14/18 4:43:17 AM 323 0.0 4.0 40 62 87.7 65.8 29.905 2.85 0.0 0 0.00 0.00 0.00 0.00
08/14/18 4:44:29 AM 323 0.0 4.0 40 62 87.7 65.8 29.905 2.85 0.0 0 0.00 0.00 0.00 0.00
08/14/18 4:45:22 AM 323 0.0 4.0 40 62 87.8 65.8 29.905 2.85 0.0 0 0.00 0.00 0.00 0.00
08/14/18 4:46:30 AM 323 0.0 4.0 40 62 87.8 65.9 29.905 2.85 0.0 0 0.00 0.00 0.00 0.00
08/14/18 4:47:23 AM 323 0.0 4.0 40 62 87.8 65.9 29.903 2.85 0.0 0 0.00 0.00 0.00 0.00
08/14/18 4:48:37 AM 323 0.0 4.0 40 62 87.8 65.8 29.903 2.85 0.0 0 0.00 0.00 0.00 0.00
08/14/18 4:49:30 AM 323 0.0 4.0 40 62 87.7 65.8 29.903 2.85 0.0 0 0.00 0.00 0.00 0.00
08/14/18 4:50:20 AM 323 0.0 4.0 40 63 87.7 65.8 29.904 2.85 0.0 0 0.00 0.00 0.00 0.00
08/14/18 4:51:34 AM 323 0.0 4.0 40 63 87.8 65.7 29.904 2.85 0.0 0 0.00 0.00 0.00 0.00
08/14/18 4:52:24 AM 323 0.0 4.0 40 63 87.7 65.7 29.904 2.85 0.0 0 0.00 0.00 0.00 0.00
08/14/18 4:53:17 AM 323 0.0 4.0 40 63 87.7 65.7 29.903 2.85 0.0 0 0.00 0.00 0.00 0.00
08/14/18 4:54:28 AM 323 0.0 4.0 40 64 87.8 65.6 29.904 2.85 0.0 0 0.00 0.00 0.00 0.00
08/14/18 4:55:21 AM 323 0.0 4.0 40 64 87.8 65.6 29.902 2.85 0.0 0 0.00 0.00 0.00 0.00
08/14/18 4:56:36 AM 323 0.0 4.0 40 64 87.8 65.6 29.904 2.85 0.0 0 0.00 0.00 0.00 0.00
08/14/18 4:57:23 AM 323 0.0 4.0 40 64 87.7 65.6 29.904 2.85 0.0 0 0.00 0.00 0.00 0.00
08/14/18 4:58:37 AM 323 0.0 4.0 40 64 87.7 65.6 29.904 2.85 0.0 0 0.00 0.00 0.00 0.00
08/14/18 4:59:28 AM 323 0.0 4.0 40 64 87.8 65.6 29.901 2.85 0.0 0 0.00 0.00 0.00 0.00
08/14/18 5:00:21 AM 323 0.0 4.0 40 64 87.7 65.6 29.904 2.85 0.0 0 0.00 0.00 0.00 0.00
08/14/18 5:01:32 AM 323 0.0 4.0 40 64 87.8 65.6 29.902 2.85 0.0 0 0.00 0.00 0.00 0.00
08/14/18 5:02:26 AM 323 0.0 4.0 40 64 87.7 65.7 29.904 2.85 0.0 0 0.00 0.00 0.00 0.00
08/14/18 5:03:34 AM 323 0.0 4.0 40 64 87.8 65.7 29.902 2.85 0.0 0 0.00 0.00 0.00 0.00
08/14/18 5:04:27 AM 323 0.0 4.0 40 64 87.7 65.7 29.902 2.85 0.0 0 0.00 0.00 0.00 0.00
08/14/18 5:05:20 AM 323 0.0 4.0 40 64 87.7 65.6 29.902 2.85 0.0 0 0.00 0.00 0.00 0.00
08/14/18 5:06:31 AM 323 0.0 4.0 40 64 87.7 65.5 29.903 2.85 0.0 0 0.00 0.00 0.00 0.00
08/14/18 5:07:24 AM 323 0.0 4.0 40 65 87.7 65.3 29.902 2.85 0.0 0 0.00 0.00 0.00 0.00
08/14/18 5:08:33 AM 323 0.0 4.0 40 65 87.7 65.2 29.900 2.85 0.0 0 0.00 0.00 0.00 0.00
08/14/18 5:09:26 AM 323 0.0 4.0 40 65 87.7 65.1 29.901 2.85 0.0 0 0.00 0.00 0.00 0.00
08/14/18 5:10:19 AM 323 0.0 4.0 40 65 87.7 65.1 29.903 2.85 0.0 0 0.00 0.00 0.00 0.00
08/14/18 5:11:30 AM 323 0.0 4.0 40 66 87.8 65.0 29.903 2.85 0.0 0 0.00 0.00 0.00 0.00
08/14/18 5:12:20 AM 323 0.0 4.0 40 66 87.8 65.0 29.899 2.85 0.0 0 0.00 0.00 0.00 0.00
08/14/18 5:13:29 AM 323 0.0 4.0 40 66 87.7 65.0 29.901 2.85 0.0 0 0.00 0.00 0.00 0.00
08/14/18 5:14:22 AM 323 0.0 4.0 40 66 87.7 65.0 29.902 2.85 0.0 0 0.00 0.00 0.00 0.00
08/14/18 5:15:33 AM 323 0.0 4.0 40 66 87.8 65.1 29.899 2.85 0.0 0 0.00 0.00 0.00 0.00
08/14/18 5:16:27 AM 323 0.0 4.0 40 65 87.8 65.0 29.899 2.85 0.0 0 0.00 0.00 0.00 0.00
08/14/18 5:17:20 AM 323 0.0 4.0 40 66 87.8 65.0 29.901 2.85 0.0 0 0.00 0.00 0.00 0.00
08/14/18 5:18:31 AM 323 0.0 4.0 40 66 87.7 65.0 29.901 2.85 0.0 0 0.00 0.00 0.00 0.00
08/14/18 5:19:18 AM 323 0.0 4.0 40 66 87.7 65.0 29.901 2.85 0.0 0 0.00 0.00 0.00 0.00
08/14/18 5:20:33 AM 323 0.0 4.0 40 66 87.8 65.0 29.900 2.85 0.0 0 0.00 0.00 0.00 0.00
08/14/18 5:21:23 AM 323 0.0 4.0 40 66 87.8 65.0 29.902 2.85 0.0 0 0.00 0.00 0.00 0.00
08/14/18 5:22:16 AM 323 0.0 4.0 40 66 87.7 65.0 29.902 2.85 0.0 0 0.00 0.00 0.00 0.00
08/14/18 5:23:30 AM 323 0.0 4.0 40 66 87.7 65.0 29.899 2.85 0.0 0 0.00 0.00 0.00 0.00
08/14/18 5:24:18 AM 323 0.0 4.0 40 66 87.8 65.0 29.901 2.85 0.0 0 0.00 0.00 0.00 0.00
08/14/18 5:25:29 AM 323 0.0 4.0 40 66 87.8 64.9 29.900 2.85 0.0 0 0.00 0.00 0.00 0.00
08/14/18 5:26:22 AM 323 0.0 4.0 40 66 87.7 64.9 29.901 2.85 0.0 0 0.00 0.00 0.00 0.00
08/14/18 5:27:37 AM 323 0.0 4.0 40 66 87.8 64.9 29.898 2.85 0.0 0 0.00 0.00 0.00 0.00
08/14/18 5:28:30 AM 323 0.0 4.0 40 66 87.7 64.9 29.902 2.85 0.0 0 0.00 0.00 0.00 0.00
08/14/18 5:29:20 AM 323 0.0 4.0 40 66 87.7 64.9 29.903 2.85 0.0 0 0.00 0.00 0.00 0.00
08/14/18 5:30:28 AM 323 0.0 4.0 40 66 87.8 64.9 29.903 2.85 0.0 0 0.00 0.00 0.00 0.00
08/14/18 5:31:25 AM 323 0.0 4.0 40 66 87.7 64.9 29.903 2.85 0.0 0 0.00 0.00 0.00 0.00
08/14/18 5:32:15 AM 323 0.0 4.0 40 66 87.8 64.9 29.904 2.85 0.0 0 0.00 0.00 0.00 0.00
08/14/18 5:33:26 AM 323 0.0 4.0 40 66 87.8 64.9 29.904 2.85 0.0 0 0.00 0.00 0.00 0.00
08/14/18 5:34:20 AM 323 0.0 4.0 40 66 87.8 64.9 29.902 2.85 0.0 0 0.00 0.00 0.00 0.00
08/14/18 5:35:28 AM 323 0.0 4.0 40 66 87.7 64.9 29.903 2.85 0.0 0 0.00 0.00 0.00 0.00
08/14/18 5:36:21 AM 323 0.0 4.0 40 66 87.7 64.9 29.904 2.85 0.0 0 0.00 0.00 0.00 0.00
08/14/18 5:37:32 AM 323 0.0 4.0 40 66 87.7 64.8 29.904 2.85 0.0 0 0.00 0.00 0.00 0.00
08/14/18 5:38:23 AM 323 0.0 4.0 40 66 87.7 64.8 29.904 2.85 0.0 0 0.00 0.00 0.00 0.00
08/14/18 5:39:16 AM 323 0.0 4.0 40 66 87.7 64.7 29.904 2.85 0.0 0 0.00 0.00 0.00 0.00
08/14/18 5:40:24 AM 323 0.0 4.0 40 66 87.7 64.7 29.905 2.85 0.0 0 0.00 0.00 0.00 0.00
08/14/18 5:41:17 AM 323 0.0 4.0 40 66 87.7 64.7 29.904 2.85 0.0 0 0.00 0.00 0.00 0.00
08/14/18 5:42:29 AM 323 0.0 4.0 40 66 87.6 64.6 29.903 2.85 0.0 0 0.00 0.00 0.00 0.00
08/14/18 5:43:22 AM 323 0.0 4.0 40 66 87.5 64.7 29.906 2.85 0.0 0 0.00 0.00 0.00 0.00
08/14/18 5:44:18 AM 323 0.0 4.0 40 66 87.5 64.6 29.904 2.85 0.0 0 0.00 0.00 0.00 0.00
08/14/18 5:45:30 AM 323 0.0 4.0 40 66 87.4 64.6 29.901 2.85 0.0 0 0.00 0.00 0.00 0.00
08/14/18 5:46:17 AM 323 0.0 4.0 40 66 87.4 64.6 29.902 2.85 0.0 0 0.00 0.00 0.00 0.00
08/14/18 5:47:28 AM 323 0.0 4.0 40 66 87.4 64.5 29.903 2.85 0.0 0 0.00 0.00 0.00 0.00
08/14/18 5:48:21 AM 323 0.0 4.0 40 66 87.3 64.5 29.902 2.85 0.0 0 0.00 0.00 0.00 0.00
08/14/18 5:49:33 AM 323 0.0 4.0 40 66 87.3 64.4 29.903 2.85 0.0 0 0.00 0.00 0.00 0.00
08/14/18 5:50:26 AM 323 0.0 4.0 40 67 87.2 64.4 29.904 2.85 0.0 0 0.00 0.00 0.00 0.00
08/14/18 5:51:34 AM 323 0.0 4.0 40 67 87.1 64.3 29.902 2.85 0.0 0 0.00 0.00 0.00 0.00
08/14/18 5:52:28 AM 323 0.0 4.0 40 67 87.1 64.3 29.900 2.85 0.0 0 0.00 0.00 0.00 0.00
08/14/18 5:53:21 AM 323 0.0 4.0 40 67 87.0 64.3 29.901 2.85 0.0 0 0.00 0.00 0.00 0.00
08/14/18 5:54:32 AM 323 0.0 4.0 40 67 87.0 64.2 29.901 2.85 0.0 0 0.00 0.00 0.00 0.00
08/14/18 5:55:25 AM 323 0.0 4.0 40 67 86.9 64.2 29.901 2.85 0.0 0 0.00 0.00 0.00 0.00
08/14/18 5:56:16 AM 323 0.0 4.0 40 67 86.8 64.1 29.900 2.85 0.0 0 0.00 0.00 0.00 0.00
08/14/18 5:57:27 AM 323 0.0 4.0 40 67 86.8 64.1 29.900 2.85 0.0 0 0.00 0.00 0.00 0.00
08/14/18 5:58:20 AM 323 0.0 4.0 40 67 86.8 64.1 29.897 2.85 0.0 0 0.00 0.00 0.00 0.00
08/14/18 5:59:32 AM 323 0.0 4.0 40 67 86.7 64.1 29.901 2.85 0.0 0 0.00 0.00 0.00 0.00
08/14/18 6:00:22 AM 323 0.0 4.0 40 68 86.6 64.1 29.900 2.85 0.0 0 0.00 0.00 0.00 0.00
08/14/18 6:01:36 AM 323 0.0 4.0 40 68 86.6 64.1 29.898 2.85 0.0 0 0.00 0.00 0.00 0.00
08/14/18 6:02:24 AM 323 0.0 4.0 40 68 86.5 64.1 29.899 2.85 0.0 0 0.00 0.00 0.00 0.00
08/14/18 6:03:17 AM 323 0.0 4.0 40 68 86.5 64.2 29.899 2.85 0.0 0 0.00 0.00 0.00 0.00
08/14/18 6:04:28 AM 323 0.0 4.0 40 68 86.4 64.3 29.897 2.85 0.0 0 0.00 0.00 0.00 0.00
08/14/18 6:05:22 AM 323 0.0 4.0 40 67 86.3 64.4 29.897 2.85 0.0 0 0.00 0.00 0.00 0.00
08/14/18 6:06:33 AM 323 0.0 4.0 40 67 86.3 64.5 29.895 2.85 0.0 0 0.00 0.00 0.00 0.00
08/14/18 6:07:24 AM 323 0.0 4.0 40 67 86.2 64.6 29.898 2.85 0.0 0 0.00 0.00 0.00 0.00
08/14/18 6:08:35 AM 323 0.0 4.0 40 67 86.2 64.6 29.899 2.85 0.0 0 0.00 0.00 0.00 0.00
08/14/18 6:09:28 AM 323 0.0 4.0 40 67 86.1 64.6 29.897 2.85 0.0 0 0.00 0.00 0.00 0.00
08/14/18 6:10:21 AM 323 0.0 4.0 40 67 85.9 64.5 29.896 2.85 0.0 0 0.00 0.00 0.00 0.00
08/14/18 6:11:36 AM 323 0.0 4.0 40 67 85.9 64.5 29.899 2.85 0.0 0 0.00 0.00 0.00 0.00
08/14/18 6:12:26 AM 323 0.0 4.0 40 67 85.8 64.5 29.897 2.85 0.0 0 0.00 0.00 0.00 0.00
08/14/18 6:13:34 AM 323 0.0 4.0 40 67 85.7 64.4 29.898 2.85 0.0 0 0.00 0.00 0.00 0.00
08/14/18 6:14:28 AM 323 0.0 4.0 40 67 85.7 64.4 29.897 2.85 0.0 0 0.00 0.00 0.00 0.00
08/14/18 6:15:21 AM 323 0.0 4.0 40 67 85.6 64.4 29.898 2.85 0.0 0 0.00 0.00 0.00 0.00
08/14/18 6:16:32 AM 323 0.0 4.0 40 67 85.6 64.4 29.898 2.85 0.0 5 0.00 0.00 0.00 0.00
08/14/18 6:17:25 AM 323 0.0 4.0 40 67 85.5 64.4 29.897 2.85 0.0 5 0.00 0.00 0.00 0.00
08/14/18 6:18:34 AM 323 0.0 4.0 40 67 85.4 64.4 29.900 2.85 0.0 5 0.00 0.00 0.00 0.00
08/14/18 6:19:27 AM 323 0.0 4.0 40 67 85.4 64.4 29.901 2.85 0.0 7 0.00 0.00 0.00 0.00
08/14/18 6:20:17 AM 323 0.0 4.0 40 67 85.3 64.3 29.900 2.85 0.0 7 0.00 0.00 0.00 0.00
08/14/18 6:21:32 AM 323 0.0 4.0 40 67 85.3 64.3 29.900 2.85 0.0 7 0.00 0.00 0.00 0.00
08/14/18 6:22:25 AM 323 0.0 4.0 40 68 85.2 64.2 29.900 2.85 0.0 7 0.00 0.00 0.00 0.00
08/14/18 6:23:30 AM 323 0.0 4.0 40 68 85.2 64.2 29.905 2.85 0.0 9 0.00 0.00 0.00 0.00
08/14/18 6:24:24 AM 323 0.0 4.0 40 67 85.1 64.2 29.903 2.85 0.0 9 0.00 0.00 0.00 0.00
08/14/18 6:25:35 AM 323 0.0 4.0 40 67 85.1 64.1 29.904 2.85 0.0 9 0.00 0.00 0.00 0.00
08/14/18 6:26:29 AM 323 0.0 4.0 40 67 85.1 64.1 29.903 2.85 0.0 11 0.00 0.00 0.00 0.00
08/14/18 6:27:22 AM 323 0.0 4.0 40 68 85.0 64.1 29.904 2.85 0.0 11 0.00 0.00 0.00 0.00
08/14/18 6:28:33 AM 323 0.0 4.0 40 68 85.0 64.1 29.902 2.85 0.0 12 0.00 0.00 0.00 0.00
08/14/18 6:29:23 AM 323 0.0 4.0 40 68 84.9 64.2 29.901 2.85 0.0 12 0.00 0.00 0.00 0.00
08/14/18 6:30:32 AM 323 0.0 4.0 40 68 84.9 64.2 29.902 2.85 0.0 12 0.00 0.00 0.00 0.00
08/14/18 6:31:25 AM 323 0.0 4.0 40 68 84.8 64.1 29.902 2.85 0.0 14 0.00 0.00 0.00 0.00
08/14/18 6:32:18 AM 323 0.0 4.0 40 68 84.9 64.1 29.902 2.85 0.0 14 0.00 0.00 0.00 0.00
08/14/18 6:33:30 AM 323 0.0 4.0 40 69 84.8 64.1 29.903 2.85 0.0 14 0.00 0.00 0.00 0.00
08/14/18 6:34:20 AM 323 0.0 4.0 40 69 84.8 64.1 29.902 2.85 0.0 16 0.00 0.00 0.00 0.00
08/14/18 6:35:32 AM 323 0.0 4.0 40 69 84.7 64.1 29.903 2.85 0.0 16 0.00 0.00 0.00 0.00
08/14/18 6:36:25 AM 323 0.0 4.0 40 68 84.6 64.1 29.902 2.85 0.0 18 0.00 0.00 0.00 0.00
08/14/18 6:37:19 AM 323 0.0 4.0 40 69 84.6 64.1 29.903 2.85 0.0 18 0.00 0.00 0.00 0.00
08/14/18 6:38:30 AM 323 0.0 4.0 40 69 84.6 64.2 29.902 2.85 0.0 19 0.00 0.00 0.00 0.00
08/14/18 6:39:24 AM 323 0.0 4.0 40 69 84.6 64.2 29.901 2.85 0.0 19 0.00 0.00 0.00 0.00
08/14/18 6:40:32 AM 323 0.0 4.0 40 69 84.5 64.3 29.903 2.85 0.0 19 0.00 0.00 0.00 0.00
08/14/18 6:41:25 AM 323 0.0 4.0 40 69 84.5 64.4 29.901 2.85 0.0 23 0.00 0.00 0.00 0.00
08/14/18 6:42:15 AM 323 0.0 4.0 40 69 84.5 64.4 29.904 2.85 0.0 25 0.00 0.00 0.00 0.00
08/14/18 6:43:27 AM 323 0.0 4.0 40 69 84.4 64.5 29.903 2.85 0.0 26 0.00 0.00 0.00 0.00
08/14/18 6:44:20 AM 323 0.0 4.0 40 69 84.4 64.5 29.903 2.85 0.0 28 0.00 0.00 0.00 0.00
08/14/18 6:45:28 AM 323 0.0 4.0 40 69 84.4 64.6 29.904 2.85 0.0 32 0.00 0.00 0.00 0.00
08/14/18 6:46:22 AM 323 0.0 4.0 40 68 84.3 64.6 29.902 2.85 0.0 33 0.00 0.00 0.00 0.00
08/14/18 6:47:36 AM 323 0.0 4.0 40 68 84.3 64.7 29.905 2.85 0.0 35 0.00 0.00 0.00 0.00
08/14/18 6:48:26 AM 323 0.0 4.0 40 68 84.3 64.7 29.904 2.85 0.0 37 0.00 0.00 0.00 0.00
08/14/18 6:49:19 AM 323 0.0 4.0 40 68 84.3 64.9 29.905 2.85 0.0 39 0.00 0.00 0.00 0.00
08/14/18 6:50:28 AM 323 0.0 4.0 40 68 84.3 64.9 29.904 2.85 0.0 40 0.00 0.00 0.00 0.00
08/14/18 6:51:18 AM 323 0.0 4.0 40 68 84.1 65.0 29.904 2.85 0.0 42 0.00 0.00 0.00 0.00
08/14/18 6:52:32 AM 323 0.0 4.0 40 67 84.1 65.2 29.905 2.85 0.0 42 0.00 0.00 0.00 0.00
08/14/18 6:53:26 AM 323 0.0 4.0 40 67 84.1 65.3 29.905 2.85 0.0 46 0.00 0.00 0.00 0.00
08/14/18 6:54:37 AM 323 0.0 4.0 40 67 84.1 65.4 29.906 2.85 0.0 47 0.00 0.00 0.00 0.00
08/14/18 6:55:30 AM 323 0.0 4.0 40 67 84.1 65.5 29.904 2.85 0.0 49 0.00 0.00 0.00 0.00
08/14/18 6:56:18 AM 323 0.0 4.0 40 66 84.0 65.6 29.905 2.85 0.0 51 0.00 0.00 0.00 0.00
08/14/18 6:57:32 AM 323 0.0 4.0 40 66 84.0 65.7 29.906 2.85 0.0 53 0.00 0.00 0.00 0.00
08/14/18 6:58:22 AM 323 0.0 4.0 40 66 84.0 65.8 29.906 2.85 0.0 54 0.00 0.00 0.00 0.00
08/14/18 6:59:37 AM 323 0.0 4.0 40 66 83.9 65.8 29.904 2.85 0.0 60 0.00 0.00 0.00 0.00
08/14/18 7:00:27 AM 323 0.0 4.0 40 66 83.9 65.8 29.905 2.85 0.0 63 0.00 0.00 0.00 0.00
08/14/18 7:01:18 AM 323 0.0 4.0 40 66 83.9 65.9 29.907 2.85 0.0 63 0.00 0.00 0.00 0.00
08/14/18 7:02:29 AM 323 0.0 4.0 40 66 83.8 65.9 29.907 2.85 0.0 69 0.00 0.00 0.00 0.00
08/14/18 7:03:22 AM 323 0.0 4.0 40 66 83.8 66.0 29.908 2.85 0.0 69 0.00 0.00 0.00 0.00
08/14/18 7:04:34 AM 323 0.0 4.0 40 66 83.7 66.1 29.908 2.85 0.0 69 0.00 0.00 0.00 0.00
08/14/18 7:05:27 AM 323 0.0 4.0 40 66 83.7 66.1 29.908 2.85 0.0 76 0.00 0.00 0.00 0.00
08/14/18 7:06:18 AM 323 0.0 4.0 40 67 83.7 66.1 29.907 2.85 0.0 77 0.00 0.00 0.00 0.00
08/14/18 7:07:26 AM 323 0.0 4.0 40 67 83.6 66.1 29.909 2.85 0.0 81 0.00 0.00 0.00 0.00
08/14/18 7:08:19 AM 323 0.0 4.0 40 66 83.6 66.1 29.908 2.85 0.0 83 0.00 0.00 0.00 0.00
08/14/18 7:09:34 AM 323 0.0 4.0 40 66 83.5 66.2 29.911 2.85 0.0 86 0.00 0.00 0.00 0.00
08/14/18 7:10:24 AM 323 0.0 4.0 40 66 83.5 66.2 29.911 2.85 0.0 86 0.00 0.00 0.00 0.00
08/14/18 7:11:18 AM 323 0.0 4.0 40 66 83.5 66.3 29.909 2.85 0.0 91 0.00 0.00 0.00 0.00
08/14/18 7:12:26 AM 323 0.0 4.0 40 65 83.4 66.4 29.912 2.85 0.0 95 0.00 0.00 0.00 0.00
08/14/18 7:13:20 AM 323 0.0 4.0 40 67 83.4 66.5 29.912 2.85 0.0 97 0.00 0.00 0.00 0.00
08/14/18 7:14:31 AM 323 0.0 4.0 40 68 83.3 66.6 29.911 2.85 0.0 102 0.00 0.00 0.00 0.00
08/14/18 7:15:24 AM 323 0.0 4.0 40 66 83.3 66.7 29.913 2.85 0.0 102 0.00 0.00 0.00 0.00
08/14/18 7:16:18 AM 323 0.0 4.0 40 66 83.3 66.7 29.912 2.85 0.0 102 0.00 0.00 0.00 0.00
08/14/18 7:17:26 AM 323 0.0 4.0 40 66 83.3 66.8 29.913 2.85 0.0 109 0.00 0.00 0.00 0.00
08/14/18 7:18:16 AM 323 0.0 4.0 40 65 83.3 66.9 29.911 2.85 0.0 114 0.00 0.00 0.00 0.00
08/14/18 7:19:31 AM 323 0.0 4.0 40 65 83.2 67.0 29.913 2.85 0.0 114 0.00 0.00 0.00 0.00
08/14/18 7:20:21 AM 323 0.0 4.0 40 65 83.2 67.1 29.912 2.85 0.0 121 0.00 0.00 0.00 0.00
08/14/18 7:21:36 AM 323 0.0 4.0 40 65 83.2 67.3 29.913 2.85 0.0 123 0.00 0.00 0.00 0.00
08/14/18 7:22:26 AM 323 0.0 4.0 40 65 83.1 67.4 29.914 2.85 0.0 127 0.00 0.00 0.00 0.00
08/14/18 7:23:16 AM 323 0.0 4.0 40 65 83.0 67.5 29.914 2.85 0.0 130 0.00 0.00 0.00 0.00
08/14/18 7:24:28 AM 323 0.0 4.0 40 65 83.1 67.6 29.916 2.85 0.0 132 0.00 0.00 0.00 0.00
08/14/18 7:25:24 AM 323 0.0 4.0 40 66 83.0 67.7 29.915 2.85 0.0 135 0.00 0.00 0.00 0.00
08/14/18 7:26:36 AM 323 0.0 4.0 40 66 83.0 67.9 29.916 2.85 0.0 139 0.00 0.00 0.00 0.00
08/14/18 7:27:26 AM 323 0.0 4.0 40 66 83.0 68.0 29.917 2.85 0.0 142 0.00 0.00 0.00 0.00
08/14/18 7:28:35 AM 323 0.0 4.0 40 66 83.0 68.1 29.918 2.85 0.0 148 0.00 0.00 0.00 0.00
08/14/18 7:29:28 AM 323 0.0 4.0 41 65 83.0 68.1 29.917 2.85 0.0 151 0.00 0.00 0.00 0.00
08/14/18 7:30:21 AM 323 0.0 4.0 41 65 82.9 68.1 29.916 2.85 0.0 151 0.00 0.00 0.00 0.00
08/14/18 7:31:33 AM 323 0.0 4.0 41 65 82.9 68.2 29.916 2.85 0.0 158 0.00 0.00 0.00 0.00
08/14/18 7:32:26 AM 323 0.0 4.0 41 65 82.9 68.3 29.918 2.85 0.0 160 0.00 0.00 0.00 0.00
08/14/18 7:33:20 AM 323 0.0 4.0 41 64 82.9 68.4 29.919 2.85 0.0 163 0.00 0.00 0.00 0.00
08/14/18 7:34:25 AM 323 0.0 4.0 41 64 82.8 68.5 29.914 2.85 0.0 167 0.00 0.00 0.00 0.00
08/14/18 7:35:19 AM 323 0.0 4.0 41 64 82.9 68.5 29.918 2.85 0.0 169 0.00 0.00 0.00 0.00
08/14/18 7:36:33 AM 323 0.0 4.0 41 65 82.9 68.7 29.918 2.85 0.0 172 0.00 0.00 0.00 0.00
08/14/18 7:37:24 AM 323 0.0 4.0 41 63 82.8 68.7 29.919 2.85 0.0 172 0.00 0.00 0.00 0.00
08/14/18 7:38:17 AM 323 0.0 4.0 41 63 82.8 68.8 29.919 2.85 0.0 178 0.00 0.00 0.00 0.00
08/14/18 7:39:26 AM 323 0.0 4.0 41 64 82.8 68.9 29.919 2.85 0.0 181 0.00 0.00 0.00 0.00
08/14/18 7:40:19 AM 323 0.0 4.0 41 64 82.8 69.0 29.919 2.85 0.0 181 0.00 0.00 0.00 0.00
08/14/18 7:41:31 AM 323 0.0 4.0 41 63 82.8 69.3 29.917 2.85 0.0 188 0.00 0.00 0.00 0.00
08/14/18 7:42:21 AM 323 0.0 4.0 41 62 82.7 69.4 29.916 2.85 0.5 190 0.00 0.00 0.00 0.00
08/14/18 7:43:32 AM 323 0.0 4.0 41 61 82.7 69.5 29.921 2.85 0.5 197 0.00 0.00 0.00 0.00
08/14/18 7:44:23 AM 323 0.0 4.0 41 62 82.7 69.6 29.918 2.85 0.5 197 0.00 0.00 0.00 0.00
08/14/18 7:45:34 AM 323 0.0 4.0 41 61 82.7 69.7 29.917 2.85 0.5 202 0.00 0.00 0.00 0.00
08/14/18 7:46:28 AM 323 0.0 4.0 41 61 82.7 69.7 29.918 2.85 0.5 206 0.00 0.00 0.00 0.00
08/14/18 7:47:18 AM 323 0.0 4.0 41 61 82.7 69.8 29.917 2.85 0.5 209 0.00 0.00 0.00 0.00
08/14/18 7:48:33 AM 323 0.0 4.0 41 61 82.7 69.7 29.918 2.85 0.5 213 0.00 0.00 0.00 0.00
08/14/18 7:49:26 AM 323 0.0 4.0 41 62 82.7 69.8 29.919 2.85 0.5 214 0.00 0.00 0.00 0.00
08/14/18 7:50:35 AM 323 0.0 4.0 41 61 82.6 69.9 29.919 2.85 0.6 218 0.00 0.00 0.00 0.00
08/14/18 7:51:25 AM 323 0.0 4.0 41 62 82.6 69.8 29.919 2.85 0.6 221 0.00 0.00 0.00 0.00
08/14/18 7:52:18 AM 267 0.0 4.0 41 64 82.6 69.8 29.919 2.85 0.6 223 0.00 0.00 0.00 0.00
08/14/18 7:53:33 AM 267 0.0 4.0 41 62 82.5 69.7 29.917 2.85 0.6 227 0.00 0.00 0.00 0.00
08/14/18 7:54:26 AM 267 0.0 4.0 41 63 82.5 69.7 29.917 2.85 0.6 230 0.00 0.00 0.00 0.00
08/14/18 7:55:32 AM 267 0.0 4.0 41 63 82.5 69.7 29.915 2.85 0.6 232 0.00 0.00 0.00 0.00
08/14/18 7:56:26 AM 267 0.0 4.0 41 63 82.5 69.7 29.916 2.85 0.6 236 0.00 0.00 0.00 0.00
08/14/18 7:57:16 AM 267 0.0 4.0 41 61 82.4 69.8 29.916 2.85 0.6 237 0.00 0.00 0.00 0.00
08/14/18 7:58:30 AM 267 0.0 4.0 41 61 82.4 69.9 29.915 2.85 0.6 237 0.00 0.00 0.00 0.00
08/14/18 7:59:21 AM 267 0.0 4.0 41 61 82.3 70.0 29.914 2.85 0.7 237 0.00 0.00 0.00 0.00
08/14/18 8:00:32 AM 267 0.0 4.0 41 62 82.3 70.1 29.915 2.85 0.7 250 0.00 0.00 0.00 0.00
08/14/18 8:01:23 AM 267 0.0 4.0 41 60 82.3 70.2 29.916 2.85 0.7 253 0.00 0.00 0.00 0.00
08/14/18 8:02:16 AM 267 0.0 4.0 41 62 82.3 70.1 29.917 2.85 0.7 253 0.00 0.00 0.00 0.00
08/14/18 8:03:28 AM 267 0.0 4.0 41 61 82.2 70.3 29.913 2.85 0.7 260 0.00 0.00 0.00 0.00
08/14/18 8:04:21 AM 267 0.0 4.0 41 60 82.2 70.4 29.914 2.85 0.7 264 0.00 0.00 0.00 0.00
08/14/18 8:05:33 AM 267 0.0 4.0 41 60 82.2 70.5 29.914 2.85 0.8 265 0.00 0.00 0.00 0.00
08/14/18 8:06:24 AM 267 0.0 4.0 41 59 82.1 70.5 29.914 2.85 0.8 269 0.00 0.00 0.00 0.00
08/14/18 8:07:35 AM 267 0.0 4.0 41 58 82.1 70.4 29.916 2.85 0.8 272 0.00 0.00 0.00 0.00
08/14/18 8:08:25 AM 267 0.0 4.0 41 58 82.1 70.4 29.917 2.85 0.8 276 0.00 0.00 0.00 0.00
08/14/18 8:09:19 AM 267 0.0 4.0 41 60 82.1 70.4 29.915 2.85 0.8 278 0.00 0.00 0.00 0.00
08/14/18 8:10:34 AM 267 0.0 4.0 41 58 82.1 70.6 29.915 2.85 0.8 281 0.00 0.00 0.00 0.00
08/14/18 8:11:21 AM 267 0.0 4.0 41 58 82.0 70.8 29.915 2.85 0.9 285 0.00 0.00 0.00 0.00
08/14/18 8:12:32 AM 267 0.0 4.0 41 58 82.0 70.9 29.917 2.85 0.9 285 0.00 0.00 0.00 0.00
08/14/18 8:13:26 AM 248 0.0 4.0 41 58 82.0 71.0 29.917 2.85 0.9 290 0.00 0.00 0.00 0.00
08/14/18 8:14:19 AM 244 0.0 4.0 41 58 81.9 71.2 29.916 2.85 0.9 294 0.00 0.00 0.00 0.00
08/14/18 8:15:31 AM 241 0.0 4.0 41 57 81.9 71.2 29.916 2.85 0.9 301 0.00 0.00 0.00 0.00
08/14/18 8:16:24 AM 236 0.0 4.0 41 57 81.9 71.3 29.918 2.85 0.9 304 0.00 0.00 0.00 0.00
08/14/18 8:17:32 AM 236 0.0 4.0 41 58 81.9 71.3 29.915 2.85 1.0 308 0.00 0.00 0.00 0.00
08/14/18 8:18:26 AM 236 0.0 4.0 41 58 81.9 71.3 29.917 2.85 1.0 311 0.00 0.00 0.00 0.00
08/14/18 8:19:16 AM 236 0.0 4.0 41 57 81.9 71.2 29.915 2.85 1.0 313 0.00 0.00 0.00 0.00
08/14/18 8:20:31 AM 232 0.0 4.0 41 58 81.8 71.2 29.916 2.85 1.0 316 0.00 0.00 0.00 0.00
08/14/18 8:21:21 AM 232 2.0 4.0 41 57 81.9 71.1 29.915 2.85 1.0 320 0.00 0.00 0.00 0.00
08/14/18 8:22:30 AM 232 1.0 4.0 41 57 81.8 71.1 29.916 2.85 1.0 323 0.00 0.00 0.00 0.00
08/14/18 8:23:20 AM 232 2.0 4.0 41 58 81.8 71.1 29.916 2.85 1.1 325 0.00 0.00 0.00 0.00
08/14/18 8:24:35 AM 232 2.0 4.0 41 58 81.9 71.1 29.918 2.85 1.1 329 0.00 0.00 0.00 0.00
08/14/18 8:25:28 AM 232 1.0 4.0 41 58 81.8 71.1 29.917 2.85 1.1 332 0.00 0.00 0.00 0.00
08/14/18 8:26:19 AM 232 2.0 4.0 41 58 81.8 71.1 29.916 2.85 1.1 336 0.00 0.00 0.00 0.00
08/14/18 8:27:27 AM 232 1.0 4.0 41 59 81.8 71.2 29.916 2.85 1.1 336 0.00 0.00 0.00 0.00
08/14/18 8:28:20 AM 232 0.0 4.0 41 58 81.8 71.2 29.917 2.85 1.1 336 0.00 0.00 0.00 0.00
08/14/18 8:29:35 AM 232 0.0 4.0 41 59 81.8 71.3 29.917 2.85 1.2 348 0.00 0.00 0.00 0.00
08/14/18 8:30:25 AM 232 2.0 4.0 41 59 81.8 71.4 29.917 2.85 1.2 348 0.00 0.00 0.00 0.00
08/14/18 8:31:19 AM 232 3.0 4.0 41 58 81.8 71.5 29.916 2.85 1.2 348 0.00 0.00 0.00 0.00
08/14/18 8:32:31 AM 232 2.0 4.0 42 57 81.8 71.6 29.917 2.85 1.2 357 0.00 0.00 0.00 0.00
08/14/18 8:33:18 AM 232 1.0 4.0 42 59 81.8 71.6 29.915 2.85 1.2 360 0.00 0.00 0.00 0.00
08/14/18 8:34:33 AM 232 1.0 4.0 42 59 81.7 71.8 29.919 2.85 1.3 362 0.00 0.00 0.00 0.00
08/14/18 8:35:23 AM 232 2.0 4.0 42 57 81.8 71.8 29.918 2.85 1.3 362 0.00 0.00 0.00 0.00
08/14/18 8:36:17 AM 232 1.0 4.0 42 56 81.8 71.8 29.918 2.85 1.3 367 0.00 0.00 0.00 0.00
08/14/18 8:37:28 AM 232 1.0 4.0 42 57 81.7 71.9 29.918 2.85 1.3 371 0.00 0.00 0.00 0.00
08/14/18 8:38:37 AM 198 3.0 4.0 42 57 81.8 72.0 29.917 2.85 1.3 374 0.00 0.00 0.00 0.00
08/14/18 8:39:27 AM 195 1.0 4.0 42 57 81.8 72.1 29.918 2.85 1.4 378 0.00 0.00 0.00 0.00
08/14/18 8:40:21 AM 195 3.0 4.0 42 58 81.7 72.2 29.918 2.85 1.4 380 0.00 0.00 0.00 0.00
08/14/18 8:41:32 AM 195 3.0 4.0 42 57 81.7 72.3 29.919 2.85 1.4 380 0.00 0.00 0.00 0.00
08/14/18 8:42:26 AM 195 2.0 4.0 42 56 81.7 72.3 29.916 2.85 1.4 387 0.00 0.00 0.00 0.00
08/14/18 8:43:16 AM 195 2.0 4.0 42 57 81.7 72.4 29.916 2.85 1.4 390 0.00 0.00 0.00 0.00
08/14/18 8:44:25 AM 198 2.0 4.0 42 57 81.7 72.4 29.918 2.85 1.4 392 0.00 0.00 0.00 0.00
08/14/18 8:45:18 AM 199 0.0 4.0 42 57 81.8 72.4 29.917 2.85 1.5 396 0.00 0.00 0.00 0.00
08/14/18 8:46:30 AM 199 0.0 4.0 42 56 81.7 72.6 29.918 2.85 1.5 401 0.00 0.00 0.00 0.00
08/14/18 8:47:20 AM 199 0.0 4.0 42 56 81.7 72.6 29.919 2.85 1.5 406 0.00 0.00 0.00 0.00
08/14/18 8:48:35 AM 199 0.0 4.0 42 55 81.6 72.6 29.918 2.85 1.6 408 0.00 0.00 0.00 0.00
08/14/18 8:49:22 AM 199 0.0 4.0 42 56 81.6 72.7 29.920 2.85 1.6 411 0.00 0.00 0.00 0.00
08/14/18 8:50:37 AM 200 2.0 4.0 42 57 81.6 72.9 29.918 2.85 1.6 415 0.00 0.00 0.00 0.00
08/14/18 8:51:27 AM 200 1.0 4.0 42 58 81.6 72.9 29.921 2.85 1.6 418 0.00 0.00 0.00 0.00
08/14/18 8:52:21 AM 200 2.0 4.0 42 56 81.6 72.9 29.922 2.85 1.6 422 0.00 0.00 0.00 0.00
08/14/18 8:53:32 AM 200 2.0 4.0 42 54 81.5 73.0 29.920 2.85 1.7 425 0.00 0.00 0.00 0.00
08/14/18 8:54:23 AM 209 1.0 4.0 42 54 81.5 72.9 29.919 2.85 1.7 429 0.00 0.00 0.00 0.00
08/14/18 8:55:38 AM 225 0.0 4.0 42 56 81.5 73.0 29.919 2.85 1.7 431 0.00 0.00 0.00 0.00
08/14/18 8:56:31 AM 237 1.0 4.0 42 57 81.5 73.1 29.919 2.85 1.7 434 0.00 0.00 0.00 0.00
08/14/18 8:57:22 AM 242 2.0 4.0 42 56 81.4 73.2 29.920 2.85 1.7 434 0.00 0.00 0.00 0.00
08/14/18 8:58:36 AM 246 0.0 4.0 42 54 81.4 73.4 29.919 2.85 1.8 441 0.00 0.00 0.00 0.00
08/14/18 8:59:30 AM 259 1.0 4.0 42 56 81.4 73.4 29.920 2.85 1.8 443 0.00 0.00 0.00 0.00
08/14/18 9:00:17 AM 276 1.0 4.0 42 54 81.4 73.4 29.919 2.85 1.8 443 0.00 0.00 0.00 0.00
08/14/18 9:01:29 AM 290 1.0 4.0 42 55 81.3 73.4 29.920 2.85 1.8 450 0.00 0.00 0.00 0.00
08/14/18 9:02:23 AM 286 1.0 4.0 42 56 81.3 73.4 29.921 2.85 1.9 452 0.00 0.00 0.00 0.00
08/14/18 9:03:34 AM 259 2.0 4.0 42 56 81.3 73.4 29.920 2.85 1.9 455 0.00 0.00 0.00 0.00
08/14/18 9:04:28 AM 244 1.0 4.0 42 56 81.3 73.5 29.919 2.85 1.9 459 0.00 0.00 0.00 0.00
08/14/18 9:05:37 AM 244 1.0 4.0 42 54 81.3 73.5 29.921 2.85 1.9 461 0.00 0.00 0.00 0.00
08/14/18 9:06:27 AM 174 2.0 5.0 42 55 81.2 73.5 29.921 2.85 2.0 464 0.00 0.00 0.00 0.00
08/14/18 9:07:20 AM 174 2.0 5.0 42 55 81.2 73.6 29.924 2.85 2.0 468 0.00 0.00 0.00 0.00
08/14/18 9:08:35 AM 196 3.0 5.0 42 54 81.2 73.6 29.923 2.85 2.0 471 0.00 0.00 0.00 0.00
08/14/18 9:09:28 AM 195 1.0 5.0 42 56 81.2 73.7 29.922 2.85 2.0 475 0.00 0.00 0.00 0.00
08/14/18 9:10:19 AM 173 1.0 5.0 42 56 81.2 73.7 29.925 2.85 2.1 476 0.00 0.00 0.00 0.00
08/14/18 9:11:27 AM 156 2.0 6.0 42 54 81.1 74.0 29.922 2.85 2.1 480 0.00 0.00 0.00 0.00
08/14/18 9:12:21 AM 156 0.0 6.0 42 54 81.1 74.0 29.922 2.85 2.1 483 0.00 0.00 0.00 0.00
08/14/18 9:13:33 AM 157 0.0 6.0 42 55 81.1 74.0 29.923 2.85 2.1 485 0.00 0.00 0.00 0.00
08/14/18 9:14:23 AM 164 2.0 6.0 42 54 81.1 74.2 29.921 2.85 2.2 489 0.00 0.00 0.00 0.00

University Police wind advisory reference

For campus closure information please call the campus Emergency Hotline at (909) 537-5999

© All rights reserved. Unauthorized duplication or distribution is prohibited

Never base important decisions on this or any weather information obtained from the Internet

California State University, San Bernardino
5500 University Parkway, San Bernardino, CA. 92407
Phone: (909) 537-5108, Email: Weather Webmaster
Last Updated: